[[{"header":{"parameterUnit":"m.s-1","parameterCategory":2,"la1":30.2991,"la2":30.254,"lo1":-89.0895,"lo2":-89.0444,"dy":0.0017,"dx":0.0017,"nx":28,"ny":28,"refTime":"2024-02-02T09:00:00:Z","depth":"0","parameterNumber":2,"parameterNumberName":"U-component_of_CURRENTS"},"data":[0,0,0,0,0,0,0,0,0,0,0,0,0,0,0,0,0,0,0,0,0,0,0,0,0,0,0,0,0,0,0,0,0,0,0,0,0,0,0,0,0,0,0,0,0,0,0,0,0,0,0,0,0,0,0,0,0,0,0.2767,0.2766,0,0.265,0.2649,0.2647,0.2533,0.2532,0.2531,0.2529,0.2453,0.2452,0.2451,0,0,0,0,0,0,0,0,0,0,0,0,0,0.2836,0.2835,0.2767,0.2766,0.2765,0.2651,0.2649,0.2647,0.2533,0.2532,0.253,0.2529,0.2454,0.2452,0.2451,0,0,0,0,0,0,0,0,0,0,0,0,0,0.2768,0.2835,0.2767,0.2697,0.2689,0.2651,0.2649,0.2646,0.2533,0.2532,0.253,0.2528,0.2454,0.2453,0.2451,0.2478,0,0,0.2447,0.2446,0,0,0,0,0,0,0,0,0.2772,0.2765,0.2708,0.2701,0.2693,0.2607,0.2645,0.2593,0.2534,0.2589,0.2529,0.2527,0.2512,0.2506,0.2482,0.2474,0.2471,0.2447,0.2446,0.2445,0.2445,0,0,0,0,0,0,0,0.2777,0.2769,0.2717,0.2707,0.2698,0.2652,0.2641,0.2634,0.256,0.2584,0.2576,0.257,0.2508,0.2484,0.248,0.247,0.2447,0.2446,0.2445,0.2444,0.2541,0.2544,0,0,0,0,0,0,0.2803,0.2774,0.2721,0.2714,0.2733,0.2653,0.264,0.2634,0.2559,0.2546,0.2571,0.2565,0.2487,0.2482,0.2477,0.2524,0.2445,0.2444,0.2443,0.2538,0.2542,0.2545,0,0,0,0,0,0,0.2805,0.28,0.2726,0.2744,0.2732,0.2655,0.2648,0.2633,0.2612,0.2549,0.2536,0.2567,0.2486,0.2479,0.2475,0.252,0.2443,0.2442,0.2534,0.2539,0.2544,0.2607,0,0,0,0,0,0,0.2808,0.2801,0.2806,0.2746,0.2732,0.2712,0.265,0.2632,0.2612,0.2602,0.2542,0.2532,0.2484,0.2477,0.2474,0.2516,0.2441,0.2529,0.2536,0.2542,0.26,0.2613,0.2625,0,0,0,0,0,0.2811,0.2818,0.2807,0.28,0.2741,0.2714,0.2702,0.2638,0.2614,0.2612,0.2572,0.2534,0.2517,0.2478,0.2473,0.2516,0.2526,0.2534,0.2541,0.2595,0.2611,0.2624,0,0,0,0,0,0,0.2842,0.2806,0.2792,0.2787,0.2762,0.2696,0.2685,0.2657,0.2622,0.2614,0.2556,0.2544,0.2566,0.2546,0.2505,0.2573,0.2526,0.2533,0.2569,0.2583,0.2595,0.2638,0.244,0,0,0,0,0,0.286,0.2855,0.282,0.2816,0.281,0.2759,0.2741,0.2706,0.2668,0.2649,0.2606,0.2589,0.2597,0.259,0.2583,0.2608,0.2632,0.2646,0.2659,0.2668,0.2707,0.2795,0.2819,0.2571,0.2571,0.257,0,0,0.2864,0.285,0.2843,0.2824,0.2796,0.2791,0.2742,0.2725,0.2723,0.2653,0.2636,0.2625,0.2616,0.2637,0.2649,0.262,0.2747,0.2678,0.2686,0.272,0.2806,0.283,0.2851,0.2576,0.2575,0.2574,0,0,0.2874,0.2871,0.287,0.2865,0.2845,0.282,0.2828,0.2779,0.2762,0.2759,0.2723,0.2761,0.2724,0.2747,0.2754,0.2848,0.2811,0.283,0.2914,0.2999,0.302,0.3039,0.3069,0.309,0.2831,0.2831,0.2831,0,0.2877,0.288,0.2866,0.2873,0.2871,0.2844,0.2848,0.2838,0.2793,0.2798,0.2767,0.2794,0.2799,0.286,0.2896,0.2879,0.2884,0.2844,0.3013,0.3033,0.3051,0.3078,0.31,0.2835,0.2835,0.2834,0.2834,0,0.2888,0.2896,0.2901,0.2902,0.2905,0.2907,0.2902,0.2902,0.2889,0.2879,0.2927,0.2937,0.2955,0.2979,0.2964,0.3093,0.3038,0.3016,0.2968,0.3079,0.31,0.3123,0.2841,0.284,0.2838,0.2837,0,0,0.2856,0.2897,0.2895,0.2898,0.2924,0.2909,0.295,0.2964,0.2965,0.2987,0.3009,0.3099,0.3101,0.3119,0.3115,0.3211,0.3353,0.3168,0.3171,0.3184,0.3488,0.3438,0.3456,0.3331,0.3336,0.334,0.3439,0,0.2857,0.2878,0.2908,0.2918,0.2922,0.2945,0.2968,0.299,0.2997,0.3008,0.3096,0.3116,0.315,0.3152,0.3266,0.3316,0.3419,0.3326,0.3394,0.3396,0.3327,0.3485,0.34,0.3481,0.346,0.3464,0.3467,0,0.2844,0.2862,0.2885,0.291,0.2913,0.2922,0.2943,0.2962,0.3018,0.3031,0.3107,0.3127,0.328,0.3281,0.3489,0.3406,0.3483,0.3538,0.3541,0.3499,0.3391,0.3377,0.3522,0.3412,0.35,0.3498,0.3495,0,0.2798,0.2832,0.2848,0.286,0.2896,0.2909,0.2924,0.2967,0.298,0.3046,0.306,0.3199,0.3259,0.3411,0.3539,0.3512,0.3737,0.3702,0.3736,0.3729,0.3683,0.3664,0.3729,0.3897,0.3896,0.3896,0.3896,0,0.278,0.2778,0.2818,0.2822,0.2818,0.2863,0.2863,0.2894,0.2947,0.2964,0.3065,0.3106,0.3301,0.3424,0.3551,0.3709,0.3755,0.3806,0.3787,0.3698,0.368,0.36,0.355,0.39,0.3899,0.3898,0.3898,0,0.2721,0.2757,0.2757,0.2792,0.2796,0.2787,0.2821,0.2816,0.2881,0.2909,0.2941,0.3071,0.3236,0.3401,0.3627,0.3709,0.3775,0.3907,0.3762,0.3727,0.3654,0.361,0.3541,0.3469,0.398,0.398,0.398,0,0.2696,0.2695,0.2714,0.2706,0.2719,0.2719,0.2717,0.2775,0.2783,0.2879,0.2892,0.3049,0.315,0.344,0.3638,0.3851,0.375,0.3861,0.385,0.3692,0.363,0.3441,0.3372,0.3794,0.3792,0.3791,0.379,0,0.264,0.2645,0.2648,0.2633,0.2622,0.2605,0.2614,0.2612,0.2679,0.273,0.28,0.2894,0.3172,0.3356,0.3618,0.375,0.3672,0.384,0.3743,0.3578,0.3316,0.3219,0.3635,0.3778,0.3779,0.378,0.3781,0.3781,0.2582,0.2564,0.2564,0.2536,0.2518,0.247,0.2422,0.2458,0.247,0.251,0.2669,0.2782,0.3097,0.3476,0.355,0.3642,0.3618,0.362,0.3604,0.3442,0.3315,0.3686,0.376,0.3761,0.3762,0.3763,0.3764,0,0.2493,0.2482,0.2463,0.2409,0.2339,0.2367,0.2328,0.2274,0.2252,0.238,0.2464,0.276,0.2983,0.3216,0.3476,0.343,0.3295,0.3346,0.3086,0.3055,0.3467,0.3402,0.332,0.332,0.3321,0.3321,0.3321,0.3321,0.2443,0.2391,0.2379,0.2237,0.2192,0.2061,0.2011,0.1976,0.2032,0.2119,0.2261,0.2443,0.28,0.3144,0.3222,0.318,0.2958,0.2831,0.2807,0.3119,0.3142,0.3164,0.3092,0.2946,0.2946,0.2284,0.2279,0.2275]},{"header":{"parameterUnit":"m.s-1","parameterCategory":2,"la1":30.2991,"la2":30.254,"lo1":-89.0895,"lo2":-89.0444,"dy":0.0017,"dx":0.0017,"nx":28,"ny":28,"refTime":"2024-02-02T09:00:00:Z","depth":"0","parameterNumber":3,"parameterNumberName":"V-component_of_CURRENTS"},"data":[0,0,0,0,0,0,0,0,0,0,0,0,0,0,0,0,0,0,0,0,0,0,0,0,0,0,0,0,0,0,0,0,0,0,0,0,0,0,0,0,0,0,0,0,0,0,0,0,0,0,0,0,0,0,0,0,0,0,0.0422,0.0421,0,0.0289,0.0287,0.0285,0.0167,0.0166,0.0165,0.0164,0.0037,0.0035,0.0032,0,0,0,0,0,0,0,0,0,0,0,0,0,0.0509,0.0508,0.0422,0.0421,0.042,0.0289,0.0287,0.0284,0.0167,0.0166,0.0165,0.0164,0.0038,0.0035,0.0032,0,0,0,0,0,0,0,0,0,0,0,0,0,0.0429,0.0508,0.0423,0.0349,0.0342,0.029,0.0287,0.0284,0.0168,0.0166,0.0165,0.0164,0.0039,0.0035,0.0031,0.0035,0,0,0.002,0.0018,0,0,0,0,0,0,0,0,0.0433,0.0425,0.0361,0.0354,0.0346,0.0247,0.0271,0.0203,0.0168,0.0229,0.0164,0.0163,0.0112,0.0102,0.0073,0.0029,0.0024,0.0019,0.0017,0.0015,0.0014,0,0,0,0,0,0,0,0.0439,0.043,0.0365,0.036,0.0351,0.03,0.0288,0.0256,0.0176,0.0223,0.0216,0.0209,0.0107,0.0077,0.0069,0.0022,0.002,0.0016,0.0014,0.0012,0.0043,0.0046,0,0,0,0,0,0,0.047,0.0435,0.0369,0.0361,0.0393,0.0301,0.0286,0.0276,0.0176,0.0161,0.021,0.0204,0.0084,0.0074,0.0065,0.0112,0.0015,0.0012,0.001,0.004,0.0044,0.0047,0,0,0,0,0,0,0.0473,0.0466,0.0374,0.0399,0.0384,0.0302,0.0291,0.0275,0.025,0.0167,0.015,0.0204,0.0083,0.007,0.0052,0.0105,0.001,0.0007,0.0037,0.0042,0.0046,0.0177,0,0,0,0,0,0,0.0476,0.0467,0.0467,0.0401,0.0384,0.0358,0.0293,0.0273,0.025,0.024,0.0157,0.0142,0.0081,0.0059,0.0049,0.0098,0.0004,0.0033,0.0039,0.0044,0.0169,0.0185,0.02,0,0,0,0,0,0.0479,0.0476,0.0467,0.0459,0.0388,0.036,0.0346,0.0279,0.0252,0.0249,0.0198,0.0145,0.009,0.0057,0.0045,0.0094,0.003,0.0037,0.0044,0.0161,0.0182,0.0199,0,0,0,0,0,0,0.0491,0.0463,0.0451,0.0434,0.0413,0.0342,0.0325,0.0297,0.0253,0.0242,0.0166,0.015,0.0163,0.0117,0.0084,0.0127,0.0059,0.0064,0.0153,0.0172,0.0187,0.0232,0.0001,0,0,0,0,0,0.0506,0.0504,0.0472,0.046,0.0455,0.0402,0.0381,0.0347,0.0302,0.0279,0.023,0.0193,0.0183,0.0166,0.0141,0.0151,0.0137,0.0184,0.02,0.0213,0.0246,0.0305,0.0329,0.007,0.007,0.007,0,0,0.0504,0.049,0.0486,0.0466,0.0436,0.0436,0.0383,0.0364,0.037,0.0277,0.0267,0.0243,0.0201,0.0215,0.0219,0.0179,0.0269,0.0222,0.0233,0.0259,0.0315,0.034,0.0362,0.0075,0.0074,0.0074,0,0,0.051,0.0497,0.0505,0.0499,0.0482,0.046,0.047,0.0426,0.0414,0.0411,0.0366,0.0388,0.0331,0.0337,0.0328,0.0424,0.0356,0.0409,0.0512,0.0569,0.0591,0.061,0.0576,0.0592,0.041,0.041,0.041,0,0.0512,0.0519,0.0501,0.051,0.0514,0.0484,0.0501,0.0489,0.0448,0.0475,0.0426,0.0443,0.0404,0.0469,0.0497,0.0463,0.0446,0.0436,0.059,0.0609,0.0626,0.0588,0.0603,0.0417,0.0416,0.0416,0.0415,0,0.053,0.0537,0.0541,0.0555,0.0558,0.0567,0.0566,0.0582,0.0575,0.0578,0.0643,0.0609,0.0627,0.0628,0.058,0.0699,0.0626,0.0606,0.054,0.066,0.0611,0.0624,0.0427,0.0425,0.0423,0.0421,0,0,0.0544,0.0555,0.0558,0.0583,0.059,0.0599,0.0639,0.0688,0.0744,0.0739,0.082,0.0835,0.0842,0.0838,0.0808,0.0857,0.0942,0.0785,0.0785,0.0748,0.1003,0.0938,0.0944,0.0944,0.0949,0.0952,0.0901,0,0.0572,0.0602,0.0604,0.065,0.0676,0.0687,0.0734,0.0779,0.0812,0.0882,0.0918,0.0967,0.0913,0.0932,0.0985,0.0969,0.0992,0.0954,0.0897,0.0895,0.0822,0.0966,0.0951,0.0906,0.0913,0.0915,0.0917,0,0.0606,0.0626,0.0669,0.073,0.0745,0.0771,0.0873,0.091,0.101,0.1041,0.1121,0.1127,0.1215,0.1141,0.1195,0.1166,0.1104,0.1074,0.1071,0.0986,0.086,0.0798,0.0929,0.0718,0.0937,0.0935,0.0934,0,0.0647,0.0684,0.0726,0.074,0.0794,0.0838,0.0877,0.0969,0.1044,0.115,0.1223,0.13,0.1347,0.1339,0.1277,0.1241,0.1306,0.124,0.1111,0.1099,0.1069,0.105,0.0998,0.1279,0.1279,0.128,0.128,0,0.0691,0.073,0.0748,0.0774,0.0857,0.088,0.0994,0.1046,0.1161,0.1286,0.1311,0.1419,0.1409,0.1432,0.1345,0.1284,0.1357,0.117,0.1124,0.1105,0.1091,0.0888,0.0788,0.1278,0.1278,0.1278,0.1279,0,0.0731,0.0738,0.0794,0.0848,0.0875,0.0933,0.105,0.1145,0.1233,0.1396,0.1438,0.1538,0.1574,0.1516,0.149,0.1371,0.1195,0.1244,0.1178,0.1128,0.0805,0.0714,0.0666,0.0553,0.1108,0.1107,0.1106,0,0.0752,0.0778,0.0838,0.0877,0.0901,0.099,0.107,0.1172,0.1286,0.1477,0.1574,0.1648,0.1744,0.166,0.148,0.1319,0.115,0.1138,0.1095,0.0828,0.0692,0.0639,0.0542,0.1066,0.1065,0.1064,0.1063,0,0.0795,0.0807,0.0847,0.0923,0.0996,0.1106,0.1226,0.1329,0.1478,0.1618,0.1803,0.1891,0.182,0.1708,0.1463,0.1321,0.0993,0.1106,0.0896,0.0735,0.0618,0.047,0.0977,0.1053,0.1054,0.1055,0.1056,0.1056,0.082,0.0853,0.0897,0.098,0.1072,0.122,0.1335,0.1482,0.1672,0.1911,0.1962,0.212,0.1919,0.1622,0.1355,0.0859,0.0898,0.0707,0.0632,0.0611,0.049,0.0935,0.0925,0.0925,0.0925,0.0926,0.0926,0,0.0843,0.0884,0.0957,0.1068,0.119,0.1239,0.1446,0.1583,0.1808,0.2019,0.2185,0.221,0.1841,0.1455,0.0825,0.0455,0.0326,0.026,0.0183,0.0115,0.0568,0.0551,0.0385,0.0385,0.0385,0.0385,0.0385,0.0386,0.0855,0.0919,0.0964,0.1152,0.1249,0.1447,0.1579,0.177,0.1953,0.2222,0.2363,0.2479,0.2267,0.1093,0.0221,0.0004,-0.0274,-0.0272,-0.0429,-0.0142,-0.0107,-0.0073,-0.0114,-0.0417,-0.0418,-0.0855,-0.0859,-0.0863]}],[{"header":{"parameterUnit":"m.s-1","parameterCategory":2,"la1":30.2991,"la2":30.254,"lo1":-89.0895,"lo2":-89.0444,"dy":0.0017,"dx":0.0017,"nx":28,"ny":28,"refTime":"2024-02-02T09:00:00:Z","depth":"2","parameterNumber":2,"parameterNumberName":"U-component_of_CURRENTS"},"data":[0,0,0,0,0,0,0,0,0,0,0,0,0,0,0,0,0,0,0,0,0,0,0,0,0,0,0,0,0,0,0,0,0,0,0,0,0,0,0,0,0,0,0,0,0,0,0,0,0,0,0,0,0,0,0,0,0,0,0.1547,0.1548,0,0.1648,0.1649,0.165,0.1705,0.1705,0.1705,0.1705,0.1743,0.1744,0.1745,0,0,0,0,0,0,0,0,0,0,0,0,0,0.1479,0.148,0.1547,0.1548,0.1549,0.1648,0.1649,0.165,0.1705,0.1705,0.1705,0.1706,0.1743,0.1744,0.1745,0,0,0,0,0,0,0,0,0,0,0,0,0,0.1536,0.148,0.1546,0.1589,0.1594,0.1647,0.1649,0.1651,0.1705,0.1705,0.1705,0.1706,0.1743,0.1744,0.1745,0.1746,0,0,0.1749,0.1749,0,0,0,0,0,0,0,0,0.1533,0.1538,0.1581,0.1586,0.1592,0.1665,0.1639,0.168,0.1705,0.1662,0.1706,0.1706,0.1712,0.1715,0.1733,0.1748,0.1749,0.1749,0.1749,0.175,0.175,0,0,0,0,0,0,0,0.1529,0.1535,0.1586,0.1583,0.1589,0.163,0.1638,0.1648,0.1681,0.1665,0.167,0.1683,0.1714,0.1732,0.1734,0.175,0.1749,0.175,0.1751,0.1751,0.1829,0.183,0,0,0,0,0,0,0.1514,0.153,0.1582,0.1589,0.1564,0.1631,0.164,0.164,0.1683,0.1691,0.1682,0.1685,0.173,0.1733,0.1736,0.1796,0.175,0.1751,0.1752,0.1828,0.1829,0.1831,0,0,0,0,0,0,0.1511,0.1517,0.1578,0.1564,0.1574,0.1631,0.1632,0.1642,0.1685,0.1697,0.1703,0.1717,0.173,0.1734,0.1777,0.1796,0.1752,0.1753,0.1826,0.1828,0.183,0.188,0,0,0,0,0,0,0.1509,0.1515,0.1518,0.1562,0.1575,0.1622,0.1632,0.1644,0.1691,0.1696,0.1728,0.1731,0.1731,0.1775,0.1778,0.1796,0.1754,0.1824,0.1827,0.1829,0.1876,0.1883,0.1889,0,0,0,0,0,0.1506,0.1519,0.1517,0.1524,0.1573,0.1623,0.1634,0.1675,0.1693,0.1714,0.1747,0.1731,0.1793,0.1778,0.1781,0.18,0.1823,0.1826,0.1829,0.1874,0.1882,0.1889,0,0,0,0,0,0,0.1494,0.1527,0.1526,0.1547,0.1582,0.1633,0.1661,0.1689,0.1733,0.1743,0.1754,0.176,0.1801,0.1797,0.1781,0.183,0.1803,0.1806,0.1835,0.1843,0.1849,0.1864,0.1755,0,0,0,0,0,0.1487,0.1511,0.1538,0.1561,0.1573,0.1618,0.1647,0.1676,0.1718,0.174,0.177,0.1794,0.1812,0.1827,0.1842,0.1873,0.1898,0.1886,0.1892,0.1898,0.1912,0.1989,0.2004,0.1841,0.1841,0.1841,0,0,0.1486,0.1514,0.1523,0.1561,0.1589,0.1622,0.1637,0.1689,0.1729,0.1734,0.1806,0.1819,0.1826,0.1863,0.188,0.1866,0.1955,0.1901,0.1906,0.1918,0.1994,0.201,0.2024,0.1843,0.1842,0.1842,0,0,0.1504,0.1518,0.1536,0.1569,0.1617,0.1646,0.1664,0.1724,0.1759,0.1817,0.1832,0.1871,0.1901,0.1922,0.1928,0.1979,0.1985,0.1974,0.2021,0.2095,0.2109,0.2122,0.2164,0.218,0.1978,0.1978,0.1978,0,0.151,0.1525,0.1553,0.1584,0.1619,0.1657,0.169,0.1731,0.1807,0.1845,0.1843,0.1926,0.193,0.1981,0.1999,0.1994,0.203,0.1989,0.2105,0.2118,0.2131,0.217,0.2188,0.1981,0.1981,0.1981,0.198,0,0.1521,0.1552,0.1574,0.1619,0.166,0.1702,0.1751,0.1804,0.1848,0.1893,0.1966,0.1989,0.2041,0.204,0.2033,0.2119,0.2112,0.2103,0.2086,0.215,0.2187,0.2205,0.1985,0.1984,0.1983,0.1983,0,0,0.1499,0.1567,0.1575,0.1609,0.1685,0.1723,0.179,0.186,0.1922,0.1981,0.2061,0.2094,0.2124,0.2135,0.214,0.2197,0.2304,0.2192,0.2195,0.2236,0.246,0.2321,0.2326,0.2325,0.2329,0.2331,0.2447,0,0.1503,0.1562,0.1597,0.1669,0.1706,0.177,0.1837,0.1913,0.1978,0.2068,0.2105,0.2176,0.2153,0.2188,0.2245,0.2296,0.2354,0.2272,0.2391,0.2394,0.2265,0.2343,0.2153,0.2228,0.2464,0.2467,0.2469,0,0.1497,0.1544,0.1604,0.171,0.173,0.1785,0.1904,0.1971,0.2089,0.214,0.222,0.2259,0.2351,0.232,0.2455,0.2409,0.2445,0.2473,0.2478,0.2345,0.2287,0.2205,0.2251,0.2498,0.2495,0.2493,0.2491,0,0.1471,0.1557,0.1609,0.1643,0.1756,0.1809,0.188,0.2001,0.207,0.2204,0.2269,0.2371,0.2441,0.2514,0.2549,0.2534,0.268,0.2665,0.2571,0.256,0.2418,0.2388,0.277,0.277,0.277,0.2769,0.2769,0,0.1471,0.1517,0.1605,0.1639,0.1715,0.1811,0.1913,0.1995,0.2128,0.2226,0.2315,0.239,0.2502,0.2578,0.2603,0.2628,0.2729,0.2598,0.2593,0.2425,0.2395,0.264,0.2623,0.2773,0.2773,0.2772,0.2771,0,0.1444,0.1497,0.1567,0.1676,0.1708,0.1775,0.1913,0.1998,0.2126,0.2259,0.2308,0.2447,0.2546,0.2607,0.2724,0.2687,0.2723,0.2698,0.2467,0.243,0.2547,0.2532,0.2646,0.2642,0.2639,0.2636,0.2634,0,0.144,0.1466,0.1569,0.1613,0.1666,0.1767,0.1843,0.1978,0.2073,0.2275,0.2338,0.247,0.2512,0.2596,0.2576,0.2589,0.2665,0.2413,0.2337,0.2557,0.2541,0.2531,0.252,0.218,0.2174,0.2169,0.2166,0,0.1421,0.1455,0.1503,0.1587,0.1666,0.1747,0.187,0.1921,0.2105,0.2187,0.232,0.2362,0.2445,0.2353,0.2335,0.2313,0.2392,0.2314,0.2656,0.2209,0.2119,0.2102,0.2107,0.2124,0.2128,0.2131,0.2133,0.2135,0.1405,0.143,0.1491,0.1564,0.1647,0.1727,0.1767,0.186,0.1936,0.2023,0.2157,0.2145,0.2184,0.2035,0.1987,0.1975,0.2133,0.2063,0.2079,0.2099,0.1993,0.1898,0.1843,0.1845,0.1847,0.1849,0.1851,0,0.1385,0.142,0.1473,0.1555,0.1608,0.1685,0.1784,0.1765,0.1776,0.1838,0.1867,0.1706,0.1621,0.169,0.1604,0.1594,0.1592,0.1544,0.1548,0.159,0.1627,0.1498,0.1216,0.1214,0.1212,0.1211,0,0,0.1382,0.1404,0.1421,0.1482,0.1556,0.1604,0.1643,0.1564,0.1563,0.1447,0.1423,0.1484,0.1605,0.137,0.1351,0.1283,0.1421,0.1227,0.1737,0.1782,0.1816,0.1927,0.1774,0,0,0,0,0]},{"header":{"parameterUnit":"m.s-1","parameterCategory":2,"la1":30.2991,"la2":30.254,"lo1":-89.0895,"lo2":-89.0444,"dy":0.0017,"dx":0.0017,"nx":28,"ny":28,"refTime":"2024-02-02T09:00:00:Z","depth":"2","parameterNumber":3,"parameterNumberName":"V-component_of_CURRENTS"},"data":[0,0,0,0,0,0,0,0,0,0,0,0,0,0,0,0,0,0,0,0,0,0,0,0,0,0,0,0,0,0,0,0,0,0,0,0,0,0,0,0,0,0,0,0,0,0,0,0,0,0,0,0,0,0,0,0,0,0,-0.0139,-0.014,0,-0.0213,-0.0214,-0.0216,-0.0256,-0.0256,-0.0256,-0.0255,-0.0408,-0.0412,-0.0416,0,0,0,0,0,0,0,0,0,0,0,0,0,-0.0134,-0.0133,-0.0139,-0.014,-0.014,-0.0213,-0.0214,-0.0216,-0.0256,-0.0256,-0.0256,-0.0255,-0.0406,-0.0411,-0.0416,0,0,0,0,0,0,0,0,0,0,0,0,0,-0.0169,-0.0133,-0.0139,-0.0166,-0.0169,-0.0213,-0.0215,-0.0216,-0.0256,-0.0256,-0.0256,-0.0255,-0.0404,-0.0411,-0.0417,-0.0466,0,0,-0.0437,-0.044,0,0,0,0,0,0,0,0,-0.0167,-0.0169,-0.0161,-0.0164,-0.0167,-0.0221,-0.0268,-0.0302,-0.0257,-0.0228,-0.0255,-0.0255,-0.035,-0.0361,-0.0381,-0.0473,-0.048,-0.0438,-0.0442,-0.0444,-0.0446,0,0,0,0,0,0,0,-0.0164,-0.0167,-0.0173,-0.0162,-0.0165,-0.0209,-0.0213,-0.0275,-0.0295,-0.023,-0.0232,-0.0234,-0.0353,-0.0375,-0.0385,-0.0482,-0.0437,-0.0443,-0.0447,-0.045,-0.0614,-0.0614,0,0,0,0,0,0,-0.0141,-0.0164,-0.017,-0.0175,-0.0161,-0.0208,-0.0213,-0.0208,-0.0293,-0.0304,-0.0234,-0.0235,-0.0364,-0.0377,-0.0391,-0.0451,-0.0444,-0.045,-0.0454,-0.0613,-0.0614,-0.0615,0,0,0,0,0,0,-0.0141,-0.0141,-0.0167,-0.0168,-0.0174,-0.0208,-0.0202,-0.0209,-0.0247,-0.0294,-0.0307,-0.0265,-0.0364,-0.0381,-0.0467,-0.0458,-0.0453,-0.0459,-0.0613,-0.0614,-0.0614,-0.0575,0,0,0,0,0,0,-0.014,-0.014,-0.0141,-0.0166,-0.0173,-0.019,-0.0203,-0.0211,-0.0245,-0.0249,-0.0325,-0.0338,-0.0365,-0.0457,-0.0473,-0.0466,-0.0464,-0.0612,-0.0613,-0.0614,-0.0575,-0.0574,-0.0573,0,0,0,0,0,-0.014,-0.014,-0.014,-0.0142,-0.0168,-0.019,-0.0198,-0.0224,-0.0247,-0.026,-0.0326,-0.0336,-0.0472,-0.0465,-0.0483,-0.0477,-0.0612,-0.0613,-0.0614,-0.0576,-0.0574,-0.0573,0,0,0,0,0,0,-0.0137,-0.0144,-0.0145,-0.0147,-0.0163,-0.0195,-0.0209,-0.0237,-0.03,-0.0314,-0.0369,-0.0386,-0.0449,-0.048,-0.0469,-0.0525,-0.0534,-0.0539,-0.0498,-0.0497,-0.0496,-0.0463,-0.047,0,0,0,0,0,-0.0134,-0.0141,-0.0148,-0.0153,-0.0154,-0.0189,-0.0207,-0.0227,-0.0277,-0.0304,-0.0367,-0.0424,-0.0466,-0.0497,-0.0546,-0.0599,-0.0601,-0.0599,-0.0598,-0.0596,-0.0582,-0.0591,-0.0588,-0.0618,-0.0618,-0.0618,0,0,-0.0133,-0.0141,-0.0143,-0.0154,-0.0168,-0.0174,-0.02,-0.0226,-0.025,-0.0314,-0.0389,-0.0436,-0.0483,-0.0528,-0.0556,-0.0555,-0.0589,-0.0597,-0.0596,-0.0582,-0.0592,-0.0589,-0.0586,-0.0619,-0.0619,-0.0618,0,0,-0.0127,-0.0137,-0.0132,-0.0143,-0.0161,-0.0182,-0.0191,-0.0237,-0.0272,-0.0345,-0.0383,-0.0432,-0.0523,-0.0538,-0.0557,-0.0585,-0.0587,-0.0595,-0.0559,-0.0568,-0.0565,-0.0563,-0.0553,-0.055,-0.0587,-0.0587,-0.0587,0,-0.0132,-0.0115,-0.0136,-0.0133,-0.0138,-0.0183,-0.0178,-0.0222,-0.0303,-0.0326,-0.0362,-0.0466,-0.0517,-0.0536,-0.054,-0.0578,-0.0578,-0.056,-0.0564,-0.0561,-0.0559,-0.0551,-0.0548,-0.0585,-0.0585,-0.0585,-0.0585,0,-0.0101,-0.0103,-0.0103,-0.0108,-0.0123,-0.0132,-0.017,-0.0216,-0.0273,-0.0309,-0.0367,-0.044,-0.0483,-0.0505,-0.0537,-0.0537,-0.054,-0.0564,-0.0561,-0.0553,-0.0545,-0.0543,-0.0582,-0.0583,-0.0584,-0.0584,0,0,-0.008,-0.0081,-0.0081,-0.0075,-0.011,-0.0114,-0.0157,-0.0186,-0.0198,-0.029,-0.0298,-0.0386,-0.0413,-0.0436,-0.0475,-0.0489,-0.0484,-0.0516,-0.0517,-0.0492,-0.0486,-0.0486,-0.0484,-0.0508,-0.0507,-0.0507,-0.0483,0,-0.0051,-0.0028,-0.0044,-0.0039,-0.0028,-0.0075,-0.0104,-0.0145,-0.0191,-0.022,-0.0283,-0.0312,-0.0387,-0.0393,-0.0425,-0.0464,-0.0477,-0.0487,-0.0509,-0.0509,-0.0499,-0.0481,-0.0472,-0.045,-0.0481,-0.048,-0.048,0,-0.0011,-0.0001,0.0023,0.001,0.0013,0.0,-0.0023,-0.0051,-0.0097,-0.0128,-0.0163,-0.021,-0.0244,-0.0308,-0.0371,-0.0372,-0.0425,-0.0464,-0.0464,-0.0473,-0.0504,-0.0466,-0.0444,-0.0476,-0.0476,-0.0477,-0.0477,0,0.0031,0.0038,0.006,0.0058,0.0041,0.0034,0.0016,-0.0023,-0.0021,-0.0051,-0.0032,-0.0105,-0.0111,-0.0198,-0.0296,-0.0327,-0.0352,-0.0404,-0.0454,-0.0453,-0.0453,-0.0454,-0.0446,-0.0446,-0.0446,-0.0446,-0.0446,0,0.0065,0.0078,0.0083,0.0095,0.0122,0.0086,0.0105,0.008,0.0076,0.0119,0.0031,0.0063,-0.0084,-0.0125,-0.024,-0.0324,-0.0311,-0.0432,-0.0446,-0.044,-0.0439,-0.0475,-0.0478,-0.0445,-0.0445,-0.0446,-0.0446,0,0.0099,0.0101,0.0127,0.0132,0.0142,0.0158,0.0175,0.0195,0.0184,0.0249,0.0255,0.0206,0.0152,0.0011,-0.0106,-0.0225,-0.0322,-0.0359,-0.0333,-0.0345,-0.0432,-0.0434,-0.0408,-0.0407,-0.0407,-0.0407,-0.0407,0,0.0114,0.0137,0.0173,0.0202,0.0206,0.0231,0.0255,0.0248,0.0293,0.0349,0.0402,0.0368,0.0352,0.0177,-0.0037,-0.0218,-0.0268,-0.0327,-0.0402,-0.0411,-0.0427,-0.0429,-0.0432,-0.0381,-0.0381,-0.0381,-0.0381,0,0.0152,0.0165,0.0199,0.0267,0.0304,0.0356,0.04,0.046,0.0486,0.0556,0.0651,0.0646,0.0464,0.0273,0.0002,-0.0134,-0.0305,-0.0328,-0.0328,-0.0397,-0.0386,-0.0402,-0.0405,-0.0378,-0.0378,-0.0379,-0.0379,-0.0379,0.018,0.0216,0.0271,0.0338,0.0394,0.0485,0.055,0.0623,0.0732,0.0833,0.0814,0.0798,0.0554,0.02,-0.0009,-0.0247,-0.027,-0.0374,-0.0375,-0.0376,-0.0382,-0.0371,-0.036,-0.0361,-0.0361,-0.0361,-0.0361,0,0.0224,0.027,0.0338,0.0427,0.0511,0.0526,0.0655,0.0735,0.0891,0.0934,0.0982,0.076,0.0525,0.0266,-0.0086,-0.0301,-0.0333,-0.0359,-0.0362,-0.0364,-0.0365,-0.0372,-0.0347,-0.0347,-0.0347,-0.0347,0,0,0.0246,0.0327,0.0372,0.0523,0.0586,0.0716,0.0801,0.0927,0.0992,0.1048,0.101,0.089,0.0578,0.0331,0.004,-0.0143,-0.0199,-0.018,-0.0176,-0.0147,-0.0145,-0.0367,-0.0377,0,0,0,0,0]}],[{"header":{"parameterUnit":"m.s-1","parameterCategory":2,"la1":30.2991,"la2":30.254,"lo1":-89.0895,"lo2":-89.0444,"dy":0.0017,"dx":0.0017,"nx":28,"ny":28,"refTime":"2024-02-02T09:00:00:Z","depth":"4","parameterNumber":2,"parameterNumberName":"U-component_of_CURRENTS"},"data":[0,0,0,0,0,0,0,0,0,0,0,0,0,0,0,0,0,0,0,0,0,0,0,0,0,0,0,0,0,0,0,0,0,0,0,0,0,0,0,0,0,0,0,0,0,0,0,0,0,0,0,0,0,0,0,0,0,0,0.0735,0.0735,0,0.0722,0.0721,0.0721,0.0752,0.0754,0.0755,0.0756,0.0766,0.0765,0.0764,0,0,0,0,0,0,0,0,0,0,0,0,0,0.0719,0.0719,0.0734,0.0735,0.0735,0.0722,0.0721,0.0721,0.0752,0.0754,0.0755,0.0757,0.0766,0.0765,0.0764,0,0,0,0,0,0,0,0,0,0,0,0,0,0.0715,0.072,0.0734,0.0751,0.0753,0.0722,0.0721,0.0721,0.0752,0.0754,0.0756,0.0757,0.0766,0.0765,0.0764,0.0717,0,0,0.0759,0.0759,0,0,0,0,0,0,0,0,0.0716,0.0715,0.0748,0.075,0.0752,0.0743,0.072,0.0722,0.0751,0.0749,0.0756,0.0758,0.0761,0.076,0.0749,0.0717,0.0718,0.0759,0.0758,0.0758,0.0758,0,0,0,0,0,0,0,0.0716,0.0716,0.0726,0.0749,0.075,0.0736,0.0738,0.0719,0.0742,0.0749,0.0752,0.0755,0.0762,0.075,0.0749,0.0718,0.0759,0.0758,0.0757,0.0757,0.0808,0.0811,0,0,0,0,0,0,0.0725,0.0716,0.0727,0.0726,0.0741,0.0736,0.0737,0.0741,0.0742,0.0745,0.0753,0.0757,0.0751,0.0751,0.075,0.0813,0.0758,0.0757,0.0756,0.0806,0.0809,0.0811,0,0,0,0,0,0,0.0725,0.0726,0.0727,0.0723,0.0723,0.0735,0.0738,0.074,0.0757,0.0746,0.0749,0.0772,0.0753,0.0752,0.0776,0.081,0.0756,0.0755,0.0804,0.0807,0.081,0.0865,0,0,0,0,0,0,0.0724,0.0726,0.0736,0.0724,0.0724,0.0735,0.0737,0.0739,0.0756,0.076,0.0762,0.0763,0.0754,0.0779,0.0775,0.0807,0.0754,0.0801,0.0805,0.0809,0.086,0.0869,0.0877,0,0,0,0,0,0.0724,0.0726,0.0737,0.0739,0.0737,0.0736,0.0735,0.0746,0.0755,0.0767,0.0781,0.0765,0.0804,0.0779,0.0774,0.0806,0.0799,0.0804,0.0809,0.0856,0.0867,0.0877,0,0,0,0,0,0,0.0717,0.073,0.0741,0.0747,0.0756,0.0744,0.075,0.0757,0.0772,0.0787,0.0775,0.0778,0.0809,0.0805,0.0778,0.0839,0.0804,0.0809,0.0842,0.0853,0.0861,0.0862,0.0752,0,0,0,0,0,0.0722,0.0734,0.0742,0.0748,0.0755,0.0756,0.0759,0.0773,0.0781,0.079,0.0791,0.0806,0.0818,0.0835,0.0834,0.0858,0.085,0.0885,0.0894,0.0901,0.0902,0.0913,0.0921,0.0828,0.0828,0.0828,0,0,0.0722,0.0729,0.0737,0.0749,0.0753,0.0763,0.0763,0.078,0.0801,0.0786,0.0816,0.0822,0.0829,0.0862,0.0879,0.087,0.0929,0.0907,0.0913,0.091,0.0919,0.0927,0.0935,0.0831,0.083,0.083,0,0,0.0721,0.0735,0.0748,0.0757,0.0779,0.078,0.0794,0.0803,0.0826,0.085,0.0856,0.0891,0.0896,0.0921,0.0931,0.0987,0.0962,0.0996,0.105,0.1061,0.1067,0.1073,0.1091,0.1098,0.1015,0.1015,0.1015,0,0.0721,0.0737,0.0751,0.0762,0.0774,0.0793,0.0809,0.0826,0.0848,0.0874,0.0875,0.0915,0.0925,0.0976,0.1011,0.1005,0.1006,0.1004,0.1069,0.1075,0.108,0.1096,0.1103,0.1018,0.1018,0.1017,0.1017,0,0.0728,0.0746,0.0751,0.0777,0.0793,0.0809,0.0839,0.0867,0.0893,0.0915,0.0972,0.0988,0.1022,0.1039,0.1042,0.11,0.1087,0.1063,0.1035,0.1092,0.1106,0.1112,0.1023,0.1022,0.1021,0.102,0,0,0.0708,0.075,0.0754,0.0774,0.0807,0.0817,0.0861,0.0906,0.0945,0.0982,0.103,0.1077,0.11,0.1115,0.1132,0.1156,0.1207,0.1139,0.1138,0.1143,0.1237,0.1169,0.1169,0.1189,0.119,0.1191,0.1238,0,0.071,0.0737,0.0762,0.0793,0.0809,0.0846,0.0875,0.0926,0.0978,0.1029,0.1079,0.1127,0.1127,0.1161,0.1186,0.1198,0.1224,0.1197,0.1193,0.1193,0.1113,0.1174,0.1195,0.1242,0.1243,0.1244,0.1245,0,0.0706,0.0728,0.0762,0.0806,0.0818,0.0844,0.0911,0.095,0.1032,0.1075,0.1144,0.1176,0.1248,0.1224,0.1276,0.1259,0.1258,0.1257,0.1258,0.1175,0.1135,0.1171,0.1256,0.1255,0.1254,0.1253,0.1253,0,0.0678,0.0724,0.0755,0.0768,0.082,0.0856,0.0895,0.0973,0.1021,0.1127,0.1176,0.1241,0.1294,0.1299,0.1326,0.1304,0.1359,0.1322,0.1257,0.1253,0.1273,0.1265,0.1341,0.1341,0.134,0.134,0.134,0,0.0658,0.0681,0.075,0.0763,0.0804,0.0855,0.0918,0.0971,0.1059,0.1121,0.121,0.1262,0.1313,0.1355,0.1348,0.1335,0.1381,0.1275,0.1261,0.1299,0.1294,0.1278,0.127,0.1342,0.1342,0.1341,0.1341,0,0.0616,0.0659,0.0693,0.0764,0.0791,0.0827,0.0922,0.0964,0.1065,0.1152,0.1192,0.1297,0.1355,0.1393,0.1416,0.1366,0.1355,0.1333,0.1398,0.1384,0.1234,0.1229,0.1258,0.1256,0.1254,0.1253,0.1252,0,0.0593,0.061,0.0687,0.0712,0.0751,0.0818,0.0854,0.0955,0.1008,0.1159,0.1188,0.1296,0.1353,0.1346,0.1377,0.137,0.1342,0.1329,0.1256,0.1243,0.1227,0.1224,0.1222,0.1249,0.1249,0.1248,0.1248,0,0.0549,0.0585,0.0615,0.0668,0.0717,0.0764,0.0839,0.0869,0.0989,0.109,0.1166,0.1211,0.1276,0.1297,0.1316,0.1297,0.1332,0.131,0.1312,0.1244,0.1233,0.1217,0.1217,0.1242,0.1243,0.1243,0.1244,0,0.0517,0.0524,0.057,0.0611,0.0666,0.0698,0.0747,0.0813,0.0875,0.1042,0.106,0.1176,0.1265,0.126,0.127,0.1262,0.1222,0.1158,0.1167,0.1174,0.1123,0.1095,0.1059,0,0,0,0,0,0.0479,0.048,0.051,0.0549,0.0601,0.0635,0.0723,0.0777,0.0898,0.0924,0.0992,0.1051,0.1098,0.1148,0.1119,0.1209,0.1213,0.1168,0.1141,0.1209,0.1216,0.1162,0,0,0,0,0,0,0.0452,0.0472,0.0482,0.049,0.0508,0.0558,0.0611,0.0695,0.0717,0.0846,0.0876,0.0972,0.1028,0.1101,0.1094,0.1106,0.1063,0.1232,0.1229,0.1205,0.1211,0.1217,0.1164,0,0,0,0,0]},{"header":{"parameterUnit":"m.s-1","parameterCategory":2,"la1":30.2991,"la2":30.254,"lo1":-89.0895,"lo2":-89.0444,"dy":0.0017,"dx":0.0017,"nx":28,"ny":28,"refTime":"2024-02-02T09:00:00:Z","depth":"4","parameterNumber":3,"parameterNumberName":"V-component_of_CURRENTS"},"data":[0,0,0,0,0,0,0,0,0,0,0,0,0,0,0,0,0,0,0,0,0,0,0,0,0,0,0,0,0,0,0,0,0,0,0,0,0,0,0,0,0,0,0,0,0,0,0,0,0,0,0,0,0,0,0,0,0,0,0.01,0.01,0,0.0119,0.0119,0.0119,0.0125,0.0125,0.0125,0.0125,0.0111,0.0111,0.011,0,0,0,0,0,0,0,0,0,0,0,0,0,0.0068,0.0069,0.01,0.01,0.0101,0.0119,0.0119,0.0119,0.0125,0.0125,0.0125,0.0125,0.0111,0.0111,0.011,0,0,0,0,0,0,0,0,0,0,0,0,0,0.0084,0.0069,0.01,0.0106,0.0106,0.0119,0.0119,0.0119,0.0125,0.0125,0.0125,0.0125,0.0111,0.0111,0.011,0.011,0,0,0.0109,0.0109,0,0,0,0,0,0,0,0,0.0083,0.0085,0.0105,0.0105,0.0106,0.012,0.0103,0.0115,0.0125,0.0118,0.0125,0.0125,0.0111,0.0111,0.0115,0.0109,0.0109,0.0109,0.0109,0.0108,0.0108,0,0,0,0,0,0,0,0.0082,0.0084,0.0107,0.0105,0.0106,0.0107,0.0109,0.0105,0.0114,0.0119,0.0119,0.0121,0.0111,0.0115,0.0114,0.0109,0.0109,0.0109,0.0108,0.0108,0.0068,0.0067,0,0,0,0,0,0,0.008,0.0084,0.0107,0.0108,0.0094,0.0108,0.011,0.0115,0.0115,0.0115,0.0121,0.0122,0.0116,0.0115,0.0114,0.0107,0.0108,0.0108,0.0108,0.0069,0.0068,0.0067,0,0,0,0,0,0,0.008,0.0082,0.0106,0.0096,0.0099,0.0108,0.0114,0.0116,0.012,0.0118,0.0117,0.0124,0.0116,0.0114,0.0109,0.0106,0.0108,0.0107,0.007,0.0068,0.0067,0.0096,0,0,0,0,0,0,0.0079,0.0082,0.0087,0.0096,0.01,0.0117,0.0114,0.0116,0.0121,0.0122,0.0119,0.0118,0.0116,0.011,0.0109,0.0106,0.0107,0.0071,0.0069,0.0068,0.0096,0.0096,0.0096,0,0,0,0,0,0.0077,0.0092,0.0087,0.009,0.0105,0.0118,0.012,0.0126,0.0121,0.0128,0.0121,0.0118,0.0099,0.011,0.0108,0.0105,0.0071,0.0069,0.0068,0.0096,0.0096,0.0096,0,0,0,0,0,0,0.0088,0.0095,0.0089,0.0106,0.0109,0.0119,0.0127,0.0125,0.0126,0.0124,0.0118,0.0116,0.0108,0.0098,0.0109,0.0084,0.008,0.0078,0.0102,0.0102,0.0102,0.0101,0.0107,0,0,0,0,0,0.009,0.0098,0.0102,0.0114,0.0116,0.0118,0.0123,0.0125,0.0127,0.0127,0.0126,0.0114,0.0099,0.0095,0.0086,0.0079,0.0054,0.007,0.007,0.007,0.0066,0.0021,0.0016,0.0061,0.0061,0.0061,0,0,0.0097,0.0102,0.0107,0.0116,0.0119,0.013,0.0122,0.0132,0.014,0.0125,0.0136,0.0118,0.0097,0.0089,0.0083,0.0082,0.0044,0.0068,0.0068,0.0064,0.0018,0.0014,0.001,0.006,0.006,0.006,0,0,0.0118,0.0119,0.013,0.0135,0.0139,0.0141,0.0142,0.0149,0.0151,0.0156,0.0138,0.0115,0.0113,0.0089,0.0076,0.0066,0.0046,0.0061,0.0063,0.002,0.0016,0.0013,-0.0018,-0.0024,0.0061,0.0061,0.0061,0,0.0126,0.0141,0.0136,0.0149,0.0158,0.0146,0.0162,0.0161,0.0166,0.0161,0.0163,0.0125,0.011,0.0077,0.0073,0.0067,0.0044,0.0072,0.0021,0.0017,0.0013,-0.0018,-0.0025,0.0062,0.0062,0.0061,0.0061,0,0.0151,0.0164,0.0174,0.0182,0.019,0.0204,0.02,0.0203,0.02,0.0193,0.0168,0.014,0.0113,0.01,0.0088,0.0044,0.0038,0.003,0.0027,0.001,-0.0021,-0.0029,0.0063,0.0063,0.0063,0.0062,0,0,0.0166,0.0187,0.019,0.02,0.021,0.022,0.0228,0.0226,0.0223,0.021,0.0197,0.0157,0.0129,0.011,0.0079,0.0038,-0.0008,0.0025,0.0022,0.0004,-0.0095,-0.0081,-0.0089,-0.0022,-0.0024,-0.0025,-0.0102,0,0.0186,0.0218,0.0223,0.0251,0.0267,0.0262,0.0272,0.0265,0.0254,0.0238,0.0185,0.0163,0.0136,0.0119,0.0072,0.001,-0.003,0.0014,-0.0086,-0.0089,-0.0066,-0.0098,-0.003,-0.0108,-0.011,-0.0112,-0.0113,0,0.0205,0.0226,0.0261,0.0285,0.0291,0.0305,0.0309,0.0317,0.0284,0.0273,0.0227,0.0189,0.0119,0.0104,-0.0013,0.0018,-0.0037,-0.0084,-0.0088,-0.0092,-0.009,-0.0093,-0.0128,-0.0127,-0.0126,-0.0125,-0.0124,0,0.0216,0.025,0.0281,0.0291,0.0316,0.0328,0.0338,0.0325,0.033,0.0287,0.0277,0.0191,0.0151,0.0062,-0.0033,-0.0026,-0.0157,-0.0159,-0.02,-0.0199,-0.0199,-0.0195,-0.0243,-0.0243,-0.0243,-0.0243,-0.0242,0,0.0235,0.0257,0.0289,0.0307,0.0339,0.0349,0.0371,0.0365,0.0354,0.0353,0.0293,0.0262,0.0138,0.0053,-0.0034,-0.0143,-0.0161,-0.0209,-0.0224,-0.0184,-0.0178,-0.0205,-0.0199,-0.0245,-0.0245,-0.0244,-0.0244,0,0.024,0.0262,0.0298,0.0334,0.0348,0.0371,0.0405,0.0415,0.0404,0.0399,0.0387,0.0302,0.0191,0.0071,-0.0077,-0.0137,-0.0245,-0.0276,-0.0221,-0.023,-0.0257,-0.0249,-0.0335,-0.0335,-0.0335,-0.0335,-0.0336,0,0.0245,0.0267,0.0319,0.0345,0.0364,0.0402,0.0429,0.0439,0.0451,0.0423,0.0417,0.0315,0.0247,0.005,-0.0078,-0.0245,-0.0262,-0.031,-0.0294,-0.0264,-0.027,-0.0262,-0.0254,-0.0336,-0.0336,-0.0336,-0.0336,0,0.0255,0.0275,0.0306,0.0363,0.0401,0.0445,0.0481,0.0492,0.0501,0.0489,0.0438,0.0336,0.0212,0.0054,-0.0074,-0.0193,-0.0278,-0.0313,-0.0313,-0.0298,-0.0266,-0.027,-0.0262,-0.0337,-0.0337,-0.0337,-0.0337,0,0.026,0.0282,0.0328,0.0375,0.0425,0.047,0.0491,0.0505,0.0516,0.049,0.0467,0.0339,0.0259,0.0081,-0.0041,-0.0155,-0.0182,-0.0206,-0.0212,-0.0213,-0.0152,-0.0092,-0.0131,0,0,0,0,0,0.0264,0.0292,0.0337,0.0392,0.0441,0.0474,0.0518,0.0533,0.054,0.0513,0.0495,0.0384,0.0202,0.0113,0.0,-0.0053,-0.0208,-0.0188,-0.024,-0.0341,-0.034,-0.0288,0,0,0,0,0,0,0.0267,0.031,0.0335,0.0396,0.0434,0.0492,0.0522,0.053,0.0516,0.0503,0.0403,0.0365,0.0178,0.0264,-0.0001,-0.0038,-0.0082,-0.0275,-0.0277,-0.0342,-0.0341,-0.034,-0.0287,0,0,0,0,0]}]]